Weather in Drochia

Moldova     48°02′03″N   27°48′57″E
temp.,
°C
wind,
m/s
gust,
m/s
humid.,
%
clouds,
%
prec.,
mm/h
press.,
hPa
HPBL,
m
17 may, mon
mon1700:00+14sw227937 0.0 100615
03:00+13w1185100 0.0 100611
06:00+12nw349394 0.0 100579
09:00+16nnw5674100 0.0 1005566
12:00+20nw446280 0.5 10041118
15:00+20nw3358100 2.8 10031205
18:00+20nw3359100 0.7 10031164
21:00+16nw227692 1.3 100311
18 may, tue
tue1800:00+14n007915 0.0 100311
03:00+13se118561 0.0 100210
06:00+12sse2291100 0.6 100114
09:00+15ssw3482100 2.9 1002469
12:00+17wnw776598 1.4 1001780
15:00+19wsw555688 2.3 10001516
18:00+15w9107511 0.9 1002738
21:00+12wnw81487100 0.9 1003713
19 may, wed
wed1900:00+11wnw91690100 0.1 1004838
03:00+11wnw91594100 4.0 1005723
06:00+11wnw91590100 3.0 1006816
09:00+12wnw9138499 3.0 1008973
12:00+16nw91267100 0.0 10091269
15:00+16nw686495 0.1 10101397
18:00+17nw576432 0.1 10101103
21:00+13wnw228415 0.1 101116
20 may, thu
thu2000:00+11nnw228953 0.0 101116
03:00+11ne2285100 0.0 101038
06:00+11ne2283100 0.1 101055
09:00+11ne2492100 1.8 1009153
12:00+11nne3697100 8.1 1009297
15:00+12n4690100 12.3 1009382
18:00+12nnw458437 0.1 1009459
21:00+11nw479092 0.1 1010312
21 may, fri
fri2100:00+9wnw369656 0.0 1011150
03:00+9s2397100 0.0 101170
06:00+9nnw2596100 0.4 1013242
09:00+10nnw5993100 1.3 1015353
12:00+12nnw3685100 1.3 1016373
15:00+15nnw5669100 2.6 1016956
18:00+14n697898 1.6 1016623
21:00+12nnw498382 1.8 1017228